星链-4517 (STARLINK-4517 )

导读 | 星芒AI

STARLINK-4517 是 SpaceX Starlink 卫星互联网项目中的一颗低轨道卫星,属于第二代 Starlink 任务的一部分。该卫星于2023年发射,旨在为全球用户提供高速、低延迟的互联网服务。它运行在约550公里高的近地轨道,采用先进通信技术,支持宽带接入。Starlink 项目致力于改善偏远地区网络覆盖,推动全球数字连接。STARLINK-4517 的部署有助于增强 Starlink 网络的稳定性和容量。

基本信息
目录编号:
53390
目录名称:
STARLINK-4517
国际标识:
2022-097C
轨道中心:
EARTH
卫星名称:
星链-4517
卫星全名:
星链-4517 (STARLINK-4517 )
卫星状态:
在轨 (已飞行1183 天)
发射日期:
2022-08-10 UTC
国别 :
美国 (US)
星等 :
--
轨道信息
数据来源 国际轨道数据
星历时间: 2025-11-04T19:02:04+0800
16小时前
查看轨道信息
半长轴: 6917.875km
偏心率: 0.00014
轨道倾角: 53.217°
近地点辐角 85.643°
升交点赤经 326.298°
平近点角 274.472°
近地点: 538.771km
远地点: 540.709km
周期: 95.437分钟
每日圈数: 15.088418
详细信息
固有亮度:
5
最大亮度:
2.5
卫星平台:
Starlink v1.5
覆盖范围:
全球
运营商:
太空探索技术公司
运营商所在国:
美国
制造商(研发单位):
太空探索技术公司
制造商所在国:
美国
使用方式:
暂无
卫星简介
星链(Starlink)计划是由太空探索技术公司(SpaceX)提出的一个巨型低轨卫星互联网星座项目,计划在2019年至2024年间在太空搭建由约1.2万颗卫星组成的“星链”网络,其中1584颗将部署在地球上空550千米处的近地轨道,并从2020年开始工作。该卫星仍在工作。
2D轨道图
3D轨道图
轨道高度分析图
轨道倾角分析图
轨道综合分析图
查看轨道综合分析图